Location: Paris
(48.6709°N, 2.3750°E)
Time: 20:01:45
(UTC+01:00)

Envisat - Visible Passes

Search period start: 16 January 2022 00:00
Search period end: 26 January 2022 00:00
Orbit: 764 x 766 km, 98.2° (Epoch: 16 January)

Date Brightness Start Highest point End Pass type
(mag) Time Alt. Az. Time Alt. Az. Time Alt. Az.
16 Jan 5.0 04:53:15 10° NE 04:57:27 25° E 05:01:38 10° SSE visible
16 Jan 3.1 06:31:49 10° N 06:36:43 49° WNW 06:41:35 10° SW visible
16 Jan 5.5 17:51:13 10° SSW 17:55:23 25° W 17:59:35 10° NW visible
17 Jan 5.9 04:18:02 10° ENE 04:20:07 12° E 04:22:12 10° ESE visible
17 Jan 2.9 05:54:48 10° NNE 05:59:56 84° ESE 06:05:01 10° SSW visible
17 Jan 4.4 07:35:07 10° NNW 07:38:18 17° WNW 07:41:28 10° W visible
18 Jan 4.1 05:18:07 10° NNE 05:22:57 41° E 05:27:43 10° SSE visible
18 Jan 3.7 06:57:24 10° N 07:01:50 31° WNW 07:06:14 10° SW visible
18 Jan 5.9 18:17:59 10° SW 18:20:58 16° W 18:23:59 10° NW visible
19 Jan 5.3 04:41:58 10° NE 04:45:45 21° E 04:49:31 10° SE visible
19 Jan 2.9 06:20:09 10° N 06:25:10 60° WNW 06:30:10 10° SSW visible
20 Jan 3.2 05:43:13 10° NNE 05:48:19 68° ESE 05:53:23 10° S visible
20 Jan 4.2 07:23:12 10° NNW 07:26:50 20° WNW 07:30:30 10° WSW visible
21 Jan 4.5 05:06:40 10° NNE 05:11:17 33° E 05:15:51 10° SSE visible
21 Jan 3.4 06:45:40 10° N 06:50:19 37° WNW 06:54:58 10° SW visible
21 Jan 5.8 18:05:38 10° SW 18:09:15 19° W 18:12:52 10° NW visible
22 Jan 5.6 04:30:48 10° NE 04:34:01 17° E 04:37:14 10° SE visible
22 Jan 2.8 06:08:31 10° N 06:13:37 74° WNW 06:18:40 10° SSW visible
22 Jan 4.6 07:49:25 10° NNW 07:51:46 13° NW 07:54:07 10° W visible
23 Jan 3.6 05:31:41 10° NNE 05:36:42 55° E 05:41:40 10° S visible
23 Jan 4.0 07:11:21 10° N 07:15:23 24° WNW 07:19:25 10° WSW visible
23 Jan 6.2 18:33:13 10° WSW 18:34:53 11° W 18:36:32 10° WNW visible
24 Jan 4.9 04:55:17 10° NE 04:59:35 27° E 05:03:53 10° SSE visible
24 Jan 3.2 06:33:57 10° N 06:38:48 46° WNW 06:43:37 10° SW visible
25 Jan 5.8 04:19:52 10° ENE 04:22:16 13° E 04:24:40 10° ESE visible
25 Jan 2.9 05:56:54 10° NNE 06:02:01 89° E 06:07:07 10° SSW visible
25 Jan 4.5 07:37:19 10° NNW 07:40:21 16° NW 07:43:22 10° W visible
